Time,TemperatureF,DewpointF,PressureIn,WindDirection,WindDirectionDegrees,WindSpeedMPH,WindSpeedGustMPH,Humidity,HourlyPrecipIn,Conditions,Clouds,dailyrainin,SoftwareType,DateUTC
2013-01-10 00:14:00,61.3,60.0,30.82,SSW,207,0.0,-999.0,95,-99.99,,,0.00,weatherlink.com 1.10,2013-01-10 06:14:00,
2013-01-10 00:30:00,61.3,60.0,30.80,SSW,201,0.0,-999.0,95,-99.99,,,0.00,weatherlink.com 1.10,2013-01-10 06:30:00,
2013-01-10 00:44:00,61.1,60.0,30.82,SSW,202,2.0,-999.0,95,-99.99,,,0.00,weatherlink.com 1.10,2013-01-10 06:44:00,
2013-01-10 00:59:00,60.7,59.0,30.81,SSW,202,0.0,-999.0,95,-99.99,,,0.00,weatherlink.com 1.10,2013-01-10 06:59:00,
2013-01-10 01:14:00,60.4,59.0,30.81,SSW,202,0.0,-999.0,95,-99.99,,,0.00,weatherlink.com 1.10,2013-01-10 07:14:00,
2013-01-10 01:29:00,60.3,59.0,30.82,SSW,202,2.0,-999.0,95,-99.99,,,0.00,weatherlink.com 1.10,2013-01-10 07:29:00,
2013-01-10 01:44:00,60.3,59.0,30.81,SSW,202,0.0,-999.0,95,-99.99,,,0.00,weatherlink.com 1.10,2013-01-10 07:44:00,
2013-01-10 01:59:00,60.2,59.0,30.82,SSW,200,3.0,-999.0,95,-99.99,,,0.00,weatherlink.com 1.10,2013-01-10 07:59:00,
2013-01-10 02:14:00,60.1,59.0,30.82,SSW,207,1.0,-999.0,95,-99.99,,,0.00,weatherlink.com 1.10,2013-01-10 08:14:00,
2013-01-10 02:29:00,59.5,58.0,30.82,SSW,201,2.0,-999.0,95,-99.99,,,0.01,weatherlink.com 1.10,2013-01-10 08:29:00,
2013-01-10 02:44:00,59.4,58.0,30.81,SSW,202,4.0,-999.0,95,-99.99,,,0.01,weatherlink.com 1.10,2013-01-10 08:44:00,
2013-01-10 02:59:00,59.4,58.0,30.82,SSW,200,4.0,-999.0,95,-99.99,,,0.01,weatherlink.com 1.10,2013-01-10 08:59:00,
2013-01-10 03:14:00,59.5,58.0,30.83,SSW,199,6.0,-999.0,95,-99.99,,,0.01,weatherlink.com 1.10,2013-01-10 09:14:00,
2013-01-10 03:29:00,59.4,58.0,30.83,SSW,199,7.0,-999.0,95,-99.99,,,0.01,weatherlink.com 1.10,2013-01-10 09:29:00,
2013-01-10 03:44:00,59.3,58.0,30.82,SSW,213,3.0,-999.0,95,-99.99,,,0.01,weatherlink.com 1.10,2013-01-10 09:44:00,
2013-01-10 03:59:00,59.3,58.0,30.80,South,189,6.0,-999.0,95,-99.99,,,0.01,weatherlink.com 1.10,2013-01-10 09:59:00,
2013-01-10 04:14:00,59.3,58.0,30.80,SSW,207,3.0,-999.0,95,-99.99,,,0.01,weatherlink.com 1.10,2013-01-10 10:14:00,
2013-01-10 04:29:00,59.2,58.0,30.80,SSW,209,6.0,-999.0,95,-99.99,,,0.01,weatherlink.com 1.10,2013-01-10 10:29:00,
2013-01-10 04:44:00,59.0,58.0,30.79,South,190,3.0,-999.0,95,-99.99,,,0.01,weatherlink.com 1.10,2013-01-10 10:44:00,
2013-01-10 04:59:00,58.6,57.0,30.78,SSW,205,2.0,-999.0,95,-99.99,,,0.01,weatherlink.com 1.10,2013-01-10 10:59:00,
2013-01-10 05:14:00,58.6,57.0,30.78,SW,219,3.0,-999.0,95,-99.99,,,0.01,weatherlink.com 1.10,2013-01-10 11:14:00,
2013-01-10 05:29:00,58.5,57.0,30.79,SW,215,0.0,-999.0,95,-99.99,,,0.01,weatherlink.com 1.10,2013-01-10 11:29:00,
2013-01-10 05:44:00,58.5,57.0,30.79,SW,218,3.0,-999.0,95,-99.99,,,0.01,weatherlink.com 1.10,2013-01-10 11:44:00,
2013-01-10 05:59:00,58.0,57.0,30.79,SSW,209,3.0,-999.0,95,-99.99,,,0.01,weatherlink.com 1.10,2013-01-10 11:59:00,
2013-01-10 06:14:00,57.3,56.0,30.79,SW,224,3.0,-999.0,95,-99.99,,,0.01,weatherlink.com 1.10,2013-01-10 12:14:00,
2013-01-10 06:30:00,56.8,55.0,30.79,SSW,192,5.0,-999.0,95,-99.99,,,0.01,weatherlink.com 1.10,2013-01-10 12:30:00,
2013-01-10 06:45:00,56.3,55.0,30.79,SW,228,2.0,-999.0,95,-99.99,,,0.01,weatherlink.com 1.10,2013-01-10 12:45:00,
2013-01-10 07:00:00,55.5,54.0,30.80,SSW,209,2.0,-999.0,95,-99.99,,,0.01,weatherlink.com 1.10,2013-01-10 13:00:00,
2013-01-10 07:15:00,54.8,53.0,30.79,SW,214,0.0,-999.0,95,-99.99,,,0.01,weatherlink.com 1.10,2013-01-10 13:15:00,
2013-01-10 07:30:00,54.1,53.0,30.81,SW,214,0.0,-999.0,95,-99.99,,,0.01,weatherlink.com 1.10,2013-01-10 13:30:00,
2013-01-10 07:45:00,53.2,52.0,30.81,SW,214,0.0,-999.0,95,-99.99,,,0.01,weatherlink.com 1.10,2013-01-10 13:45:00,
2013-01-10 08:00:00,53.3,52.0,30.81,SW,214,0.0,-999.0,95,-99.99,,,0.01,weatherlink.com 1.10,2013-01-10 14:00:00,
2013-01-10 08:15:00,54.2,53.0,30.80,SW,214,0.0,-999.0,95,-99.99,,,0.01,weatherlink.com 1.10,2013-01-10 14:15:00,
2013-01-10 08:30:00,54.8,53.0,30.80,SW,214,0.0,-999.0,95,-99.99,,,0.01,weatherlink.com 1.10,2013-01-10 14:30:00,
2013-01-10 08:45:00,54.9,54.0,30.82,SSW,213,1.0,-999.0,95,-99.99,,,0.01,weatherlink.com 1.10,2013-01-10 14:45:00,
2013-01-10 09:00:00,54.8,53.0,30.83,SW,234,0.0,-999.0,94,-99.99,,,0.01,weatherlink.com 1.10,2013-01-10 15:00:00,
2013-01-10 09:15:00,54.8,53.0,30.87,SSW,200,5.0,-999.0,93,-99.99,,,0.01,weatherlink.com 1.10,2013-01-10 15:15:00,
2013-01-10 09:30:00,55.5,53.0,30.87,SSW,194,3.0,-999.0,91,-99.99,,,0.01,weatherlink.com 1.10,2013-01-10 15:30:00,
2013-01-10 09:50:00,55.9,53.0,30.87,SW,219,1.0,-999.0,89,-99.99,,,0.01,weatherlink.com 1.10,2013-01-10 15:50:00,
2013-01-10 10:00:00,56.2,52.0,30.88,SW,225,5.0,-999.0,85,-99.99,,,0.01,weatherlink.com 1.10,2013-01-10 16:00:00,
2013-01-10 10:15:00,57.6,52.0,30.89,SW,224,0.0,-999.0,82,-99.99,,,0.01,weatherlink.com 1.10,2013-01-10 16:15:00,
2013-01-10 10:30:00,58.6,52.0,30.88,SW,221,2.0,-999.0,78,-99.99,,,0.01,weatherlink.com 1.10,2013-01-10 16:30:00,
2013-01-10 10:51:00,59.3,51.0,30.86,SW,223,7.0,-999.0,74,-99.99,,,0.01,weatherlink.com 1.10,2013-01-10 16:51:00,
2013-01-10 11:01:00,60.6,51.0,30.84,SSW,205,6.0,-999.0,70,-99.99,,,0.01,weatherlink.com 1.10,2013-01-10 17:01:00,
2013-01-10 11:16:00,61.6,51.0,30.85,SW,221,4.0,-999.0,69,-99.99,,,0.01,weatherlink.com 1.10,2013-01-10 17:16:00,
2013-01-10 11:31:00,62.5,51.0,30.85,SSW,193,4.0,-999.0,67,-99.99,,,0.01,weatherlink.com 1.10,2013-01-10 17:31:00,
2013-01-10 11:51:00,63.1,50.0,30.86,SW,218,3.0,-999.0,63,-99.99,,,0.01,weatherlink.com 1.10,2013-01-10 17:51:00,
2013-01-10 12:01:00,63.1,48.0,30.85,SW,217,4.0,-999.0,59,-99.99,,,0.01,weatherlink.com 1.10,2013-01-10 18:01:00,
2013-01-10 12:16:00,63.1,49.0,30.83,SSW,202,9.0,-999.0,61,-99.99,,,0.01,weatherlink.com 1.10,2013-01-10 18:16:00,
2013-01-10 12:31:00,63.3,49.0,30.83,SW,226,3.0,-999.0,60,-99.99,,,0.01,weatherlink.com 1.10,2013-01-10 18:31:00,
2013-01-10 12:50:00,63.5,48.0,30.82,SW,229,4.0,-999.0,58,-99.99,,,0.01,weatherlink.com 1.10,2013-01-10 18:50:00,
2013-01-10 13:00:00,63.8,49.0,30.82,SSW,210,2.0,-999.0,60,-99.99,,,0.01,weatherlink.com 1.10,2013-01-10 19:00:00,
2013-01-10 13:15:00,63.9,49.0,30.82,SW,234,0.0,-999.0,58,-99.99,,,0.01,weatherlink.com 1.10,2013-01-10 19:15:00,
2013-01-10 13:30:00,64.0,49.0,30.81,SW,219,6.0,-999.0,59,-99.99,,,0.01,weatherlink.com 1.10,2013-01-10 19:30:00,
2013-01-10 13:50:00,64.2,49.0,30.80,SSW,197,6.0,-999.0,58,-99.99,,,0.01,weatherlink.com 1.10,2013-01-10 19:50:00,
2013-01-10 14:01:00,64.3,49.0,30.80,SW,219,9.0,-999.0,59,-99.99,,,0.01,weatherlink.com 1.10,2013-01-10 20:01:00,
2013-01-10 14:15:00,64.6,49.0,30.80,SW,223,7.0,-999.0,58,-99.99,,,0.01,weatherlink.com 1.10,2013-01-10 20:15:00,
2013-01-10 14:30:00,65.0,48.0,30.80,WSW,242,8.0,-999.0,55,-99.99,,,0.01,weatherlink.com 1.10,2013-01-10 20:30:00,
2013-01-10 14:50:00,65.1,48.0,30.79,SSW,202,6.0,-999.0,54,-99.99,,,0.01,weatherlink.com 1.10,2013-01-10 20:50:00,
2013-01-10 15:00:00,65.3,49.0,30.80,SSW,208,5.0,-999.0,57,-99.99,,,0.01,weatherlink.com 1.10,2013-01-10 21:00:00,
2013-01-10 15:15:00,65.8,50.0,30.80,WSW,243,8.0,-999.0,57,-99.99,,,0.01,weatherlink.com 1.10,2013-01-10 21:15:00,
2013-01-10 15:38:00,65.2,48.0,30.79,South,179,6.0,-999.0,54,-99.99,,,0.01,weatherlink.com 1.10,2013-01-10 21:38:00,
2013-01-10 15:51:00,65.2,48.0,30.78,WSW,238,4.0,-999.0,54,-99.99,,,0.01,weatherlink.com 1.10,2013-01-10 21:51:00,
2013-01-10 16:01:00,65.1,47.0,30.79,SSW,192,4.0,-999.0,52,-99.99,,,0.01,weatherlink.com 1.10,2013-01-10 22:01:00,
2013-01-10 16:16:00,65.1,47.0,30.80,SSW,200,5.0,-999.0,52,-99.99,,,0.01,weatherlink.com 1.10,2013-01-10 22:16:00,
2013-01-10 16:31:00,65.2,48.0,30.80,SSW,213,3.0,-999.0,54,-99.99,,,0.01,weatherlink.com 1.10,2013-01-10 22:31:00,
2013-01-10 16:51:00,64.8,48.0,30.80,SW,217,1.0,-999.0,54,-99.99,,,0.01,weatherlink.com 1.10,2013-01-10 22:51:00,
2013-01-10 17:01:00,64.8,48.0,30.80,SW,221,4.0,-999.0,55,-99.99,,,0.01,weatherlink.com 1.10,2013-01-10 23:01:00,
2013-01-10 17:16:00,63.4,48.0,30.80,WSW,255,2.0,-999.0,57,-99.99,,,0.01,weatherlink.com 1.10,2013-01-10 23:16:00,
2013-01-10 17:31:00,62.2,47.0,30.79,SW,217,2.0,-999.0,59,-99.99,,,0.01,weatherlink.com 1.10,2013-01-10 23:31:00,
2013-01-10 17:51:00,61.2,47.0,30.80,SW,217,0.0,-999.0,61,-99.99,,,0.01,weatherlink.com 1.10,2013-01-10 23:51:00,
2013-01-10 18:01:00,59.6,48.0,30.80,SW,224,0.0,-999.0,66,-99.99,,,0.01,weatherlink.com 1.10,2013-01-11 00:01:00,
2013-01-10 18:16:00,57.6,48.0,30.80,SW,224,0.0,-999.0,71,-99.99,,,0.01,weatherlink.com 1.10,2013-01-11 00:16:00,
2013-01-10 18:31:00,55.5,48.0,30.80,SW,224,0.0,-999.0,75,-99.99,,,0.01,weatherlink.com 1.10,2013-01-11 00:31:00,
2013-01-10 18:51:00,53.7,47.0,30.81,SW,224,0.0,-999.0,78,-99.99,,,0.01,weatherlink.com 1.10,2013-01-11 00:51:00,
2013-01-10 19:01:00,53.0,47.0,30.81,SW,224,0.0,-999.0,80,-99.99,,,0.01,weatherlink.com 1.10,2013-01-11 01:01:00,
2013-01-10 19:16:00,52.2,47.0,30.82,SW,224,0.0,-999.0,82,-99.99,,,0.01,weatherlink.com 1.10,2013-01-11 01:16:00,
2013-01-10 19:31:00,51.8,47.0,30.82,SW,224,0.0,-999.0,83,-99.99,,,0.01,weatherlink.com 1.10,2013-01-11 01:31:00,
2013-01-10 19:51:00,52.7,47.0,30.82,SW,224,0.0,-999.0,81,-99.99,,,0.01,weatherlink.com 1.10,2013-01-11 01:51:00,
2013-01-10 20:01:00,53.2,47.0,30.81,SW,224,0.0,-999.0,80,-99.99,,,0.01,weatherlink.com 1.10,2013-01-11 02:01:00,
2013-01-10 20:16:00,53.8,47.0,30.82,SW,224,0.0,-999.0,79,-99.99,,,0.01,weatherlink.com 1.10,2013-01-11 02:16:00,
2013-01-10 20:31:00,53.8,47.0,30.82,SW,224,0.0,-999.0,79,-99.99,,,0.01,weatherlink.com 1.10,2013-01-11 02:31:00,
2013-01-10 20:51:00,53.3,47.0,30.83,SW,224,2.0,-999.0,80,-99.99,,,0.01,weatherlink.com 1.10,2013-01-11 02:51:00,
2013-01-10 21:01:00,53.5,48.0,30.83,SSW,201,2.0,-999.0,81,-99.99,,,0.01,weatherlink.com 1.10,2013-01-11 03:01:00,
2013-01-10 21:16:00,53.4,48.0,30.83,SSW,201,2.0,-999.0,81,-99.99,,,0.01,weatherlink.com 1.10,2013-01-11 03:16:00,
2013-01-10 21:31:00,53.1,48.0,30.83,SSW,201,2.0,-999.0,82,-99.99,,,0.01,weatherlink.com 1.10,2013-01-11 03:31:00,
2013-01-10 21:51:00,53.2,48.0,30.83,SSW,201,3.0,-999.0,82,-99.99,,,0.01,weatherlink.com 1.10,2013-01-11 03:51:00,
2013-01-10 22:01:00,53.0,48.0,30.82,SSW,201,0.0,-999.0,83,-99.99,,,0.01,weatherlink.com 1.10,2013-01-11 04:01:00,
2013-01-10 22:16:00,52.5,48.0,30.83,SSW,201,2.0,-999.0,83,-99.99,,,0.01,weatherlink.com 1.10,2013-01-11 04:16:00,
2013-01-10 22:31:00,52.1,47.0,30.83,SSW,201,1.0,-999.0,84,-99.99,,,0.01,weatherlink.com 1.10,2013-01-11 04:31:00,
2013-01-10 22:51:00,52.4,48.0,30.83,SSW,211,3.0,-999.0,85,-99.99,,,0.01,weatherlink.com 1.10,2013-01-11 04:51:00,
2013-01-10 23:16:00,53.5,49.0,30.84,SSW,202,0.0,-999.0,83,-99.99,,,0.01,weatherlink.com 1.10,2013-01-11 05:16:00,
2013-01-10 23:31:00,53.2,48.0,30.85,SSW,193,0.0,-999.0,83,-99.99,,,0.01,weatherlink.com 1.10,2013-01-11 05:31:00,
2013-01-10 23:52:00,51.9,48.0,30.84,South,187,3.0,-999.0,85,-99.99,,,0.00,weatherlink.com 1.10,2013-01-11 05:52:00,